This is the latest recevied weather packets stored in our database for station/object OZ1IEP-5. If no packets are shown the sender has not sent any weather packets the latest 10 day(s).
| Time | Temp. | Humidity | Pressure | Rain* | Wind** | Luminosity | Snow |
|---|---|---|---|---|---|---|---|
| 1787502006 | 17.22° C | 83% | 1014.6 hPa | 0 mm | - | 49 W/m² | - |
| 1787501406 | 17.22° C | 83% | 1014.4 hPa | 0 mm | - | 47 W/m² | - |
| 1787500807 | 17.78° C | 83% | 1014.4 hPa | 0 mm | - | 44 W/m² | - |
| 1787500205 | 17.78° C | 83% | 1014.1 hPa | 0 mm | - | 46 W/m² | - |
| 1787499606 | 17.78° C | 82% | 1014.1 hPa | 0 mm | - | 56 W/m² | - |
| 1787499007 | 17.78° C | 80% | 1014.1 hPa | 0 mm | - | 84 W/m² | - |
| 1787498406 | 17.78° C | 80% | 1014.1 hPa | 0 mm | - | 54 W/m² | - |
| 1787497806 | 17.78° C | 81% | 1014 hPa | 0 mm | - | 121 W/m² | - |
| 1787497210 | 17.78° C | 82% | 1014 hPa | 0 mm | - | 216 W/m² | - |
| 1787496606 | 17.78° C | 82% | 1013.9 hPa | 0 mm | - | 158 W/m² | - |
| 1787496006 | 18.33° C | 83% | 1013.8 hPa | 0 mm | - | 476 W/m² | - |
| 1787495409 | 18.33° C | 83% | 1013.7 hPa | 0 mm | - | 555 W/m² | - |
| 1787494806 | 17.78° C | 84% | 1013.7 hPa | 0 mm | - | 587 W/m² | - |
| 1787494206 | 17.78° C | 84% | 1013.6 hPa | 0 mm | - | 657 W/m² | - |
| 1787493608 | 17.78° C | 86% | 1013.5 hPa | 0 mm | - | 209 W/m² | - |
| 1787493006 | 17.22° C | 90% | 1013.5 hPa | 0 mm | - | 691 W/m² | - |
| 1787492406 | 16.67° C | 90% | 1013.3 hPa | 0 mm | - | 645 W/m² | - |
| 1787491809 | 16.11° C | 91% | 1013.2 hPa | 0.25 mm | - | 279 W/m² | - |
| 1787491206 | 15.56° C | 91% | 1013.2 hPa | 1.02 mm | - | 199 W/m² | - |
| 1787490606 | 15.56° C | 90% | 1013.1 hPa | 1.27 mm | - | 105 W/m² | - |
| 1787490008 | 15.56° C | 90% | 1013.1 hPa | 1.52 mm | - | 109 W/m² | - |
| 1787489405 | 15° C | 90% | 1013.1 hPa | 1.52 mm | - | 86 W/m² | - |
| 1787488805 | 15° C | 89% | 1013 hPa | 1.52 mm | - | 62 W/m² | - |
| 1787488207 | 15° C | 88% | 1013.1 hPa | 1.52 mm | - | 40 W/m² | - |
| 1787487606 | 15.56° C | 89% | 1013 hPa | 0.51 mm | - | 44 W/m² | - |
* Rain latest hour (hover to see other rain measurements)
** Current wind speed in m/s (hover to see current wind gust speed)